Regional Weather Roundup
Issued by NWS Portland, ME

Home | Current Version | Previous Version | Text Only | Print | Product List | Glossary On
Versions: 1 2 3 4 5 6 7 8 9 10 11 12 13 14 15 16 17 18 19 20 21 22 23 24 25 26 27 28 29 30 31 32 33 34 35 36 37 38 39 40 41 42 43 44 45 46 47 48 49 50
000
ASUS41 KGYX 230510
RWRGYX
WEATHER ROUNDUP FOR MAINE AND NEW HAMPSHIRE
NATIONAL WEATHER SERVICE GRAY ME
100 AM EDT WED AUG 23 2017

MEZ002-005-006-010-012-015-018-020-021-024-026-027-029-230600-
MAINE

CITY           SKY/WX    TMP DP  RH WIND       PRES   REMARKS
PORTLAND       RAIN      70  68  93 S9        29.68S FOG
SANFORD        HVY RAIN  71  69  93 S6        29.70S
BAR HARBOR     CLOUDY    66  66 100 S14G24    29.67F FOG
WISCASSET      RAIN      72  68  87 SW10G20   29.68R
ROCKLAND       CLOUDY    68  66  93 SW14G24   29.67S
FRYEBURG       CLOUDY    71  70  96 CALM      29.65R
LEWISTONAUBURN LGT RAIN  72  71  97 S13G20    29.65S
AUGUSTA        RAIN      71  69  93 S12G20    29.63F FOG
WATERVILLE     LGT RAIN  71  70  96 S7        29.59S FOG
BANGOR         CLOUDY    71  68  90 S14       29.61F FOG
GREENVILLE       N/A     69  69 100 S7        29.59S
MILLINOCKET    CLOUDY    71  70  96 S8        29.58F
HOULTON        CLOUDY    71  69  93 S9G18     29.55F
PRESQUE ISLE   CLOUDY    72  69  90 S14G22    29.52F
FRENCHVILLE    RAIN      68  67  96 S14G23    29.46F FOG
CARIBOU        CLOUDY    72  68  87 S13G21    29.50F
$$

NHZ002-005-008-009-011-012-014-230600-
NEW HAMPSHIRE

CITY           SKY/WX    TMP DP  RH WIND       PRES   REMARKS
PORTSMOUTH     TSTM      71  69  93 SW8       29.70S FOG
ROCHESTER      RAIN      71  68  90 VRB3      29.69S FOG
NASHUA         RAIN      72  72 100 VRB5      29.72R
MANCHESTER     LGT RAIN  72  69  90 S7        29.69F
CONCORD        LGT RAIN  70  69  97 S7        29.69S
LACONIA        LGT RAIN  71  68  90 SW8       29.67F
PLYMOUTH       FAIR      69  67  92 CALM      29.66S
BERLIN         CLOUDY    69  65  86 S5        29.64S
WHITEFIELD     CLOUDY    69  65  86 SW3       29.64F
JAFFREY        LGT RAIN  71  71 100 SW5       29.74F
KEENE            N/A    N/A N/A N/A MISG        N/A
LEBANON        CLOUDY    72  68  87 S14       29.66S
MT WASHINGTON  LGT RAIN  54  54 100 W48G55      N/A  VSB 0
$$

VTZ005-007-008-230600-
VERMONT

CITY           SKY/WX    TMP DP  RH WIND       PRES   REMARKS
ST JOHNSBURY     N/A     69  69 100 MISG      29.63R
MONTPELIER     PTCLDY    69  66  90 VRB6      29.69R
BURLINGTON     CLOUDY    71  68  90 S14       29.60F
$$

MAZ007-012-024-CTZ003-RIZ002-NYZ038-NYZ072-230600-
SOUTHERN NEW ENGLAND AND NY

CITY           SKY/WX    TMP DP  RH WIND       PRES   REMARKS
WORCESTER      HVY RAIN  73  70  90 SW15G23   29.75R FOG
NANTUCKET      CLOUDY    71  71 100 S17G28    29.83R FOG
PROVIDENCE     CLOUDY    77  73  87 SW14G26   29.76R
HARTFORD       CLOUDY    75  73  93 SW13      29.72S
ALBANY         CLOUDY    72  68  87 S9        29.70R
NEW YORK CITY  TSTM      74  71  91 SW10      29.79F
$$

ANZ081-ANZ082-ANZ150-NHZ014-MEZ023>029-230600-
COASTAL MARINE OBSERVATIONS

STATION/POSITION TIME  TEMP    WIND        PRES    WAVE
                       AIR SEA DIR/SP/G            HT/PER
                 (UTC) (F)     (DEG/KT/KT) (MB)    (FT/S)
MOUNT DESERT ROC 0500   62                 1005.3F
MATINICUS ROCK   0400   65     190/ 27/ 28 1004.8S
ISLE OF SHOALS   0400   70     190/ 27/ 29 1004.4F
JEFFREYS LEDGE   0406      63                N/A     5/ 6
CASHES LEDGE BUO 0450   70 69              1005.5R   7/ 6
GEORGES BANK BUO 0350   69 66              1013.4    4/ 5
$$

.............KEY..............
   WCI - WIND CHILL
   TC  - TEMPERATURE IN CELSIUS
   VSB - VISIBILITY IN MILES
   HX  - HEAT INDEX
   FAIR- INDICATES FEW OR NO CLOUDS BELOW 12,000 FT, WITH NO
         SIGNIFICANT WEATHER AND/OR OBSTRUCTIONS TO VISIBILITY.






USA.gov is the U.S. government's official web portal to all federal, state and local government web resources and services.